Current Weather Conditions by Major Hwy


I-84 West to East [Columbia River Gorge] 100 AM PDT THU MAR 30 2017 ELEVA CITY SKY/WX TMP DP RH WIND PRES REMARKS 10 ASTORIA, OR CLOUDY 47 41 80 W9 30.11R 20 KELSO CLOUDY 45 43 93 VRB3 30.11R 40 PORTLAND, OR CLOUDY 46 40 79 NW5 30.10R 30 TROUTDALE, OR CLOUDY 48 40 73 CALM 30.09R 240 THE DALLES, OR PTCLDY 49 40 71 CALM 29.97F 620 HERMISTON, OR PTCLDY 50 40 68 SW15 29.91F 1,480 PENDLETON, OR CLOUDY 46 41 82 SW9 29.92S 2,710 LA GRANDE CLOUDY 46 39 76 NW12 29.90S 3,370 BAKER CITY CLOUDY 41 40 96 CALM 29.90S 2,190 ONTARIO PTCLDY 45 43 93 CALM 29.91F
I-90 West to East 100 AM PDT THU MAR 30 2017 ELEVA CITY SKY/WX TMP DP RH WIND PRES REMARKS 30 SEATAC AIRPORT LGT RAIN 45 41 86 S12 30.02R 1,730 ELLENSBURG CLEAR 41 31 67 NW18 29.90F 1,200 MOSES LAKE CLEAR 43 34 70 CALM 29.85R 1,880 SPOKANE GEIGER MOCLDY 43 40 89 SW14 29.81R
I-82 North West to South East 100 AM PDT THU MAR 30 2017 ELEVA CITY SKY/WX TMP DP RH WIND PRES REMARKS 1,730 ELLENSBURG CLEAR 41 31 67 NW18 29.90F 1,050 YAKIMA CLEAR 45 35 68 W8 29.91S 720 360 PASCO PTCLDY 48 35 60 W8 29.92R 620 HERMISTON, OR PTCLDY 50 40 68 SW15 29.91F
Hwy97 North to South 100 AM PDT THU MAR 30 2017 ELEVA CITY SKY/WX TMP DP RH WIND PRES REMARKS 850 OMAK CLEAR 42 33 70 VRB3 29.80R 630 WENATCHEE CLEAR 44 36 73 N9 29.86S 1,730 ELLENSBURG CLEAR 41 31 67 NW18 29.90F 1,050 YAKIMA CLEAR 45 35 68 W8 29.91S 1,640 GOLDENDALE* PTCLDY 49 40 71 CALM 29.97F *From Dallesport Airport Elev 240 3,080 REDMOND CLOUDY 42 34 73 W16G24 29.95R 4,100 KLAMATH FALLS LGT RAIN 45 44 97 W14 29.92F
I-5 North to South 100 AM PDT THU MAR 30 2017 ELEVA CITY SKY/WX TMP DP RH WIND PRES REMARKS 150 BELLINGHAM LGT RAIN 45 43 93 S3 29.98R FOG 100 ARLINGTON CLOUDY 45 36 70 CALM 30.05R 610 EVERETT CLOUDY 43 41 93 E5 30.02R 30 SEATAC AIRPORT LGT RAIN 45 41 86 S12 30.02R 200 OLYMPIA CLOUDY 43 42 97 S9 30.06R 20 KELSO CLOUDY 45 43 93 VRB3 30.11R 100 VANCOUVER CLOUDY 47 42 83 VRB3 30.09R 40 PORTLAND CLOUDY 46 40 79 NW5 30.10R 200 SALEM MOCLDY 46 39 76 NW8 30.10R 360 EUGENE CLOUDY 46 43 89 NW6 30.12R 510 ROSEBURG LGT RAIN 49 44 83 NW6 30.12R 1,300 MEDFORD LGT RAIN 50 48 93 NW10 30.03R
Data from:
http://www.wrh.noaa.gov/sew/get.php?pil=RWR&sid=OR&version=0&format=printer
http://www.wrh.noaa.gov/sew/get.php?pil=RWR&sid=WA&version=0&format=printer

Current Observations

Washington State Current Weather Observations   …  Oregon State Current Weather Observation



48 Hour Forecast

Seattle  …  Vancouver  …  Portland
————————————————————————————————————————
Bend  …  Spokane  …  Richland  …  Pendleton  …  Blue Mountains I-84  …  Yakima
————————————————————————————————————————
Goldendale, Washington Higher Elevations  …  Dallesport Airport - Goldendale  …  Bingen - White Salmon - Hood River  …  Index


Top of Page